Time,TemperatureF,DewpointF,PressureIn,WindDirection,WindDirectionDegrees,WindSpeedMPH,WindSpeedGustMPH,Humidity,HourlyPrecipIn,Conditions,Clouds,dailyrainin,SoftwareType,DateUTC
2013-03-16 00:03:00,52.0,36.0,29.85,NNW,331,4.0,8.0,54,0.00,,,0.00,,2013-03-16 04:03:00,
2013-03-16 00:13:00,52.0,36.0,29.85,NNW,331,4.0,8.0,54,0.00,,,0.00,,2013-03-16 04:13:00,
2013-03-16 00:23:00,52.0,36.0,29.85,North,349,3.0,7.0,55,0.00,,,0.00,,2013-03-16 04:23:00,
2013-03-16 00:33:00,52.0,37.0,29.84,NNE,16,2.0,7.0,56,0.00,,,0.00,,2013-03-16 04:33:00,
2013-03-16 00:43:00,52.0,37.0,29.84,NNE,16,2.0,7.0,56,0.00,,,0.00,,2013-03-16 04:43:00,
2013-03-16 00:53:00,51.0,36.0,29.83,North,2,2.0,6.0,56,0.00,,,0.00,,2013-03-16 04:53:00,
2013-03-16 01:02:00,51.0,36.0,29.83,North,2,2.0,6.0,56,0.00,,,0.00,,2013-03-16 05:02:00,
2013-03-16 01:12:00,51.0,36.0,29.83,North,2,2.0,6.0,56,0.00,,,0.00,,2013-03-16 05:12:00,
2013-03-16 01:22:00,51.0,36.0,29.83,North,359,2.0,8.0,57,0.00,,,0.00,,2013-03-16 05:22:00,
2013-03-16 01:32:00,51.0,37.0,29.83,NNE,30,2.0,6.0,58,0.00,,,0.00,,2013-03-16 05:32:00,
2013-03-16 01:42:00,51.0,37.0,29.83,NNE,30,2.0,6.0,58,0.00,,,0.00,,2013-03-16 05:42:00,
2013-03-16 01:53:00,51.0,37.0,29.83,NNE,26,2.0,7.0,59,0.00,,,0.00,,2013-03-16 05:53:00,
2013-03-16 02:02:00,51.0,37.0,29.83,NNE,26,2.0,7.0,59,0.00,,,0.00,,2013-03-16 06:02:00,
2013-03-16 02:12:00,51.0,37.0,29.83,NNE,26,2.0,7.0,59,0.00,,,0.00,,2013-03-16 06:12:00,
2013-03-16 02:22:00,50.0,36.0,29.81,NW,305,1.0,2.0,59,0.00,,,0.00,,2013-03-16 06:22:00,
2013-03-16 02:32:00,50.0,36.0,29.81,West,274,0.0,5.0,59,0.00,,,0.00,,2013-03-16 06:32:00,
2013-03-16 02:42:00,50.0,36.0,29.81,West,274,0.0,5.0,59,0.00,,,0.00,,2013-03-16 06:42:00,
2013-03-16 02:52:00,50.0,36.0,29.81,West,274,0.0,5.0,59,0.00,,,0.00,,2013-03-16 06:52:00,
2013-03-16 03:02:00,50.0,37.0,29.80,NE,38,2.0,3.0,60,0.00,,,0.00,,2013-03-16 07:02:00,
2013-03-16 03:12:00,50.0,37.0,29.80,NE,38,2.0,3.0,60,0.00,,,0.00,,2013-03-16 07:12:00,
2013-03-16 03:22:00,50.0,37.0,29.80,NNW,342,2.0,5.0,61,0.00,,,0.00,,2013-03-16 07:22:00,
2013-03-16 03:32:00,50.0,37.0,29.80,NNW,342,2.0,5.0,61,0.00,,,0.00,,2013-03-16 07:32:00,
2013-03-16 03:42:00,50.0,37.0,29.80,NNW,342,2.0,5.0,61,0.00,,,0.00,,2013-03-16 07:42:00,
2013-03-16 03:52:00,49.0,37.0,29.79,SSE,148,2.0,5.0,62,0.00,,,0.00,,2013-03-16 07:52:00,
2013-03-16 04:02:00,49.0,37.0,29.79,SSE,148,2.0,5.0,62,0.00,,,0.00,,2013-03-16 08:02:00,
2013-03-16 04:12:00,49.0,37.0,29.79,SSE,148,2.0,5.0,62,0.00,,,0.00,,2013-03-16 08:12:00,
2013-03-16 04:23:00,49.0,37.0,29.78,SSE,150,3.0,5.0,62,0.00,,,0.00,,2013-03-16 08:23:00,
2013-03-16 04:32:00,49.0,37.0,29.77,SSE,162,2.0,5.0,63,0.00,,,0.00,,2013-03-16 08:32:00,
2013-03-16 04:42:00,49.0,37.0,29.77,SSE,162,2.0,5.0,63,0.00,,,0.00,,2013-03-16 08:42:00,
2013-03-16 04:52:00,49.0,37.0,29.76,ENE,76,4.0,6.0,64,0.00,,,0.00,,2013-03-16 08:52:00,
2013-03-16 05:02:00,49.0,37.0,29.76,ENE,76,4.0,6.0,64,0.00,,,0.00,,2013-03-16 09:02:00,
2013-03-16 05:12:00,49.0,37.0,29.76,ENE,76,4.0,6.0,64,0.00,,,0.00,,2013-03-16 09:12:00,
2013-03-16 05:22:00,48.0,37.0,29.75,ENE,77,5.0,6.0,66,0.00,,,0.00,,2013-03-16 09:22:00,
2013-03-16 05:33:00,48.0,37.0,29.75,ENE,77,5.0,6.0,66,0.00,,,0.00,,2013-03-16 09:33:00,
2013-03-16 05:43:00,48.0,37.0,29.75,ENE,77,5.0,6.0,66,0.00,,,0.00,,2013-03-16 09:43:00,
2013-03-16 05:53:00,48.0,37.0,29.75,ENE,73,3.0,5.0,66,0.00,,,0.00,,2013-03-16 09:53:00,
2013-03-16 06:03:00,48.0,38.0,29.75,ENE,78,3.0,5.0,68,0.00,,,0.00,,2013-03-16 10:03:00,
2013-03-16 06:12:00,48.0,38.0,29.75,ENE,78,3.0,5.0,68,0.00,,,0.00,,2013-03-16 10:12:00,
2013-03-16 06:23:00,48.0,38.0,29.75,ENE,78,3.0,5.0,68,0.00,,,0.00,,2013-03-16 10:23:00,
2013-03-16 06:32:00,48.0,38.0,29.75,ESE,121,1.0,3.0,68,0.00,,,0.00,,2013-03-16 10:32:00,
2013-03-16 06:42:00,48.0,38.0,29.75,ESE,121,1.0,3.0,68,0.00,,,0.00,,2013-03-16 10:42:00,
2013-03-16 06:53:00,48.0,38.0,29.75,ESE,121,1.0,3.0,68,0.00,,,0.00,,2013-03-16 10:53:00,
2013-03-16 07:03:00,47.0,41.0,29.78,South,175,1.0,7.0,78,0.03,,,0.03,,2013-03-16 11:03:00,
2013-03-16 07:12:00,47.0,41.0,29.78,South,175,1.0,7.0,78,0.03,,,0.03,,2013-03-16 11:12:00,
2013-03-16 07:22:00,46.0,41.0,29.77,East,80,0.0,3.0,81,0.04,,,0.04,,2013-03-16 11:22:00,
2013-03-16 07:32:00,46.0,41.0,29.77,ENE,68,4.0,6.0,83,0.04,,,0.04,,2013-03-16 11:32:00,
2013-03-16 07:43:00,46.0,41.0,29.77,ENE,68,4.0,6.0,83,0.04,,,0.04,,2013-03-16 11:43:00,
2013-03-16 07:53:00,46.0,41.0,29.78,NE,37,2.0,5.0,84,0.04,,,0.04,,2013-03-16 11:53:00,
2013-03-16 08:02:00,46.0,42.0,29.76,SE,127,0.0,5.0,86,0.01,,,0.04,,2013-03-16 12:02:00,
2013-03-16 08:12:00,46.0,42.0,29.76,SE,127,0.0,5.0,86,0.01,,,0.04,,2013-03-16 12:12:00,
2013-03-16 08:22:00,46.0,42.0,29.76,SE,127,0.0,5.0,86,0.01,,,0.04,,2013-03-16 12:22:00,
2013-03-16 08:32:00,47.0,43.0,29.77,East,79,6.0,9.0,86,0.00,,,0.04,,2013-03-16 12:32:00,
2013-03-16 08:42:00,47.0,43.0,29.77,East,79,6.0,9.0,86,0.00,,,0.04,,2013-03-16 12:42:00,
2013-03-16 08:53:00,47.0,42.0,29.77,ENE,77,5.0,7.0,84,0.00,,,0.04,,2013-03-16 12:53:00,
2013-03-16 09:02:00,47.0,43.0,29.76,ENE,62,2.0,7.0,86,0.00,,,0.04,,2013-03-16 13:02:00,
2013-03-16 09:12:00,47.0,43.0,29.76,ENE,62,2.0,7.0,86,0.00,,,0.04,,2013-03-16 13:12:00,
2013-03-16 09:22:00,48.0,44.0,29.77,East,85,0.0,5.0,85,0.00,,,0.04,,2013-03-16 13:22:00,
2013-03-16 09:32:00,48.0,44.0,29.77,East,85,0.0,5.0,85,0.00,,,0.04,,2013-03-16 13:32:00,
2013-03-16 09:42:00,48.0,44.0,29.77,East,85,0.0,5.0,85,0.00,,,0.04,,2013-03-16 13:42:00,
2013-03-16 09:53:00,48.0,44.0,29.77,East,85,0.0,5.0,85,0.00,,,0.04,,2013-03-16 13:53:00,
2013-03-16 10:02:00,52.0,47.0,29.75,East,100,3.0,7.0,84,0.00,,,0.04,,2013-03-16 14:02:00,
2013-03-16 10:12:00,52.0,47.0,29.75,East,100,3.0,7.0,84,0.00,,,0.04,,2013-03-16 14:12:00,
2013-03-16 10:22:00,53.0,47.0,29.74,ENE,66,3.0,6.0,80,0.00,,,0.04,,2013-03-16 14:22:00,
2013-03-16 10:32:00,54.0,48.0,29.73,ENE,78,1.0,6.0,79,0.00,,,0.04,,2013-03-16 14:32:00,
2013-03-16 10:42:00,54.0,48.0,29.73,ENE,78,1.0,6.0,79,0.00,,,0.04,,2013-03-16 14:42:00,
2013-03-16 10:52:00,57.0,50.0,29.73,ENE,69,0.0,6.0,76,0.00,,,0.04,,2013-03-16 14:52:00,
2013-03-16 11:03:00,58.0,49.0,29.72,SSW,197,4.0,12.0,72,0.00,,,0.04,,2013-03-16 15:03:00,
2013-03-16 11:12:00,58.0,49.0,29.72,SSW,197,4.0,12.0,72,0.00,,,0.04,,2013-03-16 15:12:00,
2013-03-16 11:23:00,61.0,51.0,29.71,NNE,19,3.0,8.0,70,0.00,,,0.04,,2013-03-16 15:23:00,
2013-03-16 11:33:00,61.0,51.0,29.71,NNE,19,3.0,8.0,70,0.00,,,0.04,,2013-03-16 15:33:00,
2013-03-16 11:43:00,61.0,51.0,29.71,NNE,19,3.0,8.0,70,0.00,,,0.04,,2013-03-16 15:43:00,
2013-03-16 11:53:00,64.0,52.0,29.70,NE,45,3.0,9.0,64,0.00,,,0.04,,2013-03-16 15:53:00,
2013-03-16 12:03:00,64.0,52.0,29.70,NE,45,3.0,9.0,64,0.00,,,0.04,,2013-03-16 16:03:00,
2013-03-16 12:13:00,64.0,52.0,29.70,NE,45,3.0,9.0,64,0.00,,,0.04,,2013-03-16 16:13:00,
2013-03-16 12:23:00,65.0,50.0,29.69,West,262,3.0,8.0,59,0.00,,,0.04,,2013-03-16 16:23:00,
2013-03-16 12:30:00,67.0,50.0,29.69,NNW,329,5.0,15.0,55,0.00,,,0.04,,2013-03-16 16:30:00,
2013-03-16 12:33:00,65.0,50.0,29.69,West,262,3.0,8.0,59,0.00,,,0.04,,2013-03-16 16:33:00,
2013-03-16 12:43:00,65.0,50.0,29.69,West,262,3.0,8.0,59,0.00,,,0.04,,2013-03-16 16:43:00,
2013-03-16 12:53:00,67.0,50.0,29.69,NNW,329,5.0,15.0,55,0.00,,,0.04,,2013-03-16 16:53:00,
2013-03-16 13:03:00,67.0,50.0,29.69,NNW,329,5.0,15.0,55,0.00,,,0.04,,2013-03-16 17:03:00,
2013-03-16 13:13:00,67.0,50.0,29.69,NNW,329,5.0,15.0,55,0.00,,,0.04,,2013-03-16 17:13:00,
2013-03-16 13:23:00,67.0,50.0,29.69,NNW,329,5.0,15.0,55,0.00,,,0.04,,2013-03-16 17:23:00,
2013-03-16 13:53:00,71.0,50.0,29.68,NW,310,9.0,21.0,47,0.00,,,0.04,,2013-03-16 17:53:00,
2013-03-16 14:03:00,72.0,49.0,29.67,SW,221,6.0,15.0,45,0.00,,,0.04,,2013-03-16 18:03:00,
2013-03-16 14:13:00,72.0,49.0,29.67,SW,221,6.0,15.0,45,0.00,,,0.04,,2013-03-16 18:13:00,
2013-03-16 14:23:00,73.0,50.0,29.67,West,263,10.0,24.0,45,0.00,,,0.04,,2013-03-16 18:23:00,
2013-03-16 14:33:00,72.0,49.0,29.67,NW,313,6.0,22.0,45,0.00,,,0.04,,2013-03-16 18:33:00,
2013-03-16 14:43:00,72.0,49.0,29.67,NW,313,6.0,22.0,45,0.00,,,0.04,,2013-03-16 18:43:00,
2013-03-16 14:53:00,74.0,51.0,29.66,SW,219,7.0,18.0,44,0.00,,,0.04,,2013-03-16 18:53:00,
2013-03-16 15:00:00,73.0,49.0,29.64,WSW,255,11.0,25.0,42,0.00,,,0.04,,2013-03-16 19:00:00,
2013-03-16 15:02:00,73.0,49.0,29.65,WSW,249,5.0,24.0,43,0.00,,,0.04,,2013-03-16 19:02:00,
2013-03-16 15:12:00,73.0,49.0,29.65,WSW,249,5.0,24.0,43,0.00,,,0.04,,2013-03-16 19:12:00,
2013-03-16 15:22:00,73.0,49.0,29.64,WSW,255,11.0,25.0,42,0.00,,,0.04,,2013-03-16 19:22:00,
2013-03-16 15:32:00,73.0,49.0,29.64,WSW,255,11.0,25.0,42,0.00,,,0.04,,2013-03-16 19:32:00,
2013-03-16 15:42:00,73.0,49.0,29.64,WSW,255,11.0,25.0,42,0.00,,,0.04,,2013-03-16 19:42:00,
2013-03-16 15:53:00,73.0,49.0,29.64,WSW,255,11.0,25.0,42,0.00,,,0.04,,2013-03-16 19:53:00,
2013-03-16 16:22:00,74.0,48.0,29.60,SW,230,15.0,32.0,40,0.00,,,0.04,,2013-03-16 20:22:00,
2013-03-16 16:33:00,74.0,48.0,29.60,WSW,250,13.0,37.0,40,0.00,,,0.04,,2013-03-16 20:33:00,
2013-03-16 16:42:00,74.0,48.0,29.60,WSW,250,13.0,37.0,40,0.00,,,0.04,,2013-03-16 20:42:00,
2013-03-16 16:52:00,73.0,49.0,29.59,WNW,289,7.0,25.0,42,0.00,,,0.04,,2013-03-16 20:52:00,
2013-03-16 17:02:00,74.0,49.0,29.59,SW,235,12.0,33.0,41,0.00,,,0.04,,2013-03-16 21:02:00,
2013-03-16 17:12:00,74.0,49.0,29.59,SW,235,12.0,33.0,41,0.00,,,0.04,,2013-03-16 21:12:00,
2013-03-16 17:22:00,74.0,49.0,29.59,SW,235,12.0,33.0,41,0.00,,,0.04,,2013-03-16 21:22:00,
2013-03-16 17:33:00,74.0,49.0,29.59,SW,235,12.0,33.0,41,0.00,,,0.04,,2013-03-16 21:33:00,
2013-03-16 17:43:00,74.0,49.0,29.59,SW,235,12.0,33.0,41,0.00,,,0.04,,2013-03-16 21:43:00,
2013-03-16 17:53:00,71.0,50.0,29.64,NNW,332,9.0,21.0,47,0.00,,,0.04,,2013-03-16 21:53:00,
2013-03-16 18:03:00,71.0,50.0,29.64,NNW,332,9.0,21.0,47,0.00,,,0.04,,2013-03-16 22:03:00,
2013-03-16 18:13:00,71.0,50.0,29.64,NNW,332,9.0,21.0,47,0.00,,,0.04,,2013-03-16 22:13:00,
2013-03-16 18:23:00,64.0,56.0,29.68,NNE,28,5.0,10.0,74,0.08,,,0.12,,2013-03-16 22:23:00,
2013-03-16 18:33:00,64.0,56.0,29.68,NNE,28,5.0,10.0,74,0.08,,,0.12,,2013-03-16 22:33:00,
2013-03-16 18:42:00,64.0,56.0,29.68,NNE,28,5.0,10.0,74,0.08,,,0.12,,2013-03-16 22:42:00,
2013-03-16 18:53:00,64.0,54.0,29.68,NNE,28,6.0,13.0,70,0.08,,,0.12,,2013-03-16 22:53:00,
2013-03-16 19:02:00,63.0,53.0,29.68,NNE,30,5.0,16.0,69,0.01,,,0.12,,2013-03-16 23:02:00,
2013-03-16 19:13:00,63.0,53.0,29.68,NNE,30,5.0,16.0,69,0.01,,,0.12,,2013-03-16 23:13:00,
2013-03-16 19:23:00,63.0,53.0,29.68,NNE,30,5.0,16.0,69,0.01,,,0.12,,2013-03-16 23:23:00,
2013-03-16 19:33:00,63.0,52.0,29.70,NNW,342,6.0,20.0,68,0.00,,,0.12,,2013-03-16 23:33:00,
2013-03-16 19:42:00,63.0,52.0,29.70,NNW,342,6.0,20.0,68,0.00,,,0.12,,2013-03-16 23:42:00,
2013-03-16 19:53:00,63.0,52.0,29.70,NNW,342,6.0,20.0,68,0.00,,,0.12,,2013-03-16 23:53:00,
2013-03-16 20:02:00,63.0,52.0,29.70,NNW,342,6.0,20.0,68,0.00,,,0.12,,2013-03-17 00:02:00,
2013-03-16 20:12:00,63.0,52.0,29.70,NNW,342,6.0,20.0,68,0.00,,,0.12,,2013-03-17 00:12:00,
2013-03-16 20:23:00,61.0,52.0,29.71,NNE,22,6.0,24.0,71,0.00,,,0.12,,2013-03-17 00:23:00,
2013-03-16 20:33:00,61.0,52.0,29.71,NNE,22,6.0,24.0,71,0.00,,,0.12,,2013-03-17 00:33:00,
2013-03-16 20:43:00,61.0,52.0,29.71,NNE,22,6.0,24.0,71,0.00,,,0.12,,2013-03-17 00:43:00,
2013-03-16 20:52:00,61.0,52.0,29.71,NNE,22,6.0,24.0,71,0.00,,,0.12,,2013-03-17 00:52:00,
2013-03-16 21:02:00,60.0,51.0,29.74,NE,48,5.0,14.0,73,0.00,,,0.12,,2013-03-17 01:02:00,
2013-03-16 21:12:00,60.0,51.0,29.74,NE,48,5.0,14.0,73,0.00,,,0.12,,2013-03-17 01:12:00,
2013-03-16 21:22:00,60.0,51.0,29.75,NW,315,9.0,14.0,72,0.00,,,0.12,,2013-03-17 01:22:00,
2013-03-16 21:32:00,60.0,51.0,29.76,North,10,6.0,15.0,73,0.00,,,0.12,,2013-03-17 01:32:00,
2013-03-16 21:42:00,60.0,51.0,29.76,North,10,6.0,15.0,73,0.00,,,0.12,,2013-03-17 01:42:00,
2013-03-16 21:53:00,60.0,51.0,29.77,North,354,3.0,13.0,73,0.00,,,0.12,,2013-03-17 01:53:00,
2013-03-16 22:03:00,60.0,51.0,29.77,North,354,3.0,13.0,73,0.00,,,0.12,,2013-03-17 02:03:00,
2013-03-16 22:13:00,60.0,51.0,29.77,North,354,3.0,13.0,73,0.00,,,0.12,,2013-03-17 02:13:00,
2013-03-16 22:22:00,60.0,52.0,29.78,ENE,72,3.0,10.0,74,0.00,,,0.12,,2013-03-17 02:22:00,
2013-03-16 22:33:00,59.0,51.0,29.79,NE,37,1.0,8.0,74,0.00,,,0.12,,2013-03-17 02:33:00,
2013-03-16 22:43:00,59.0,51.0,29.79,NE,37,1.0,8.0,74,0.00,,,0.12,,2013-03-17 02:43:00,
2013-03-16 22:53:00,59.0,51.0,29.80,NE,52,2.0,6.0,75,0.00,,,0.12,,2013-03-17 02:53:00,
2013-03-16 23:02:00,59.0,51.0,29.81,NE,53,2.0,6.0,76,0.00,,,0.12,,2013-03-17 03:02:00,
2013-03-16 23:12:00,59.0,51.0,29.81,NE,53,2.0,6.0,76,0.00,,,0.12,,2013-03-17 03:12:00,
2013-03-16 23:22:00,58.0,50.0,29.81,NNW,347,0.0,2.0,76,0.00,,,0.12,,2013-03-17 03:22:00,
2013-03-16 23:33:00,58.0,50.0,29.82,WNW,298,0.0,3.0,76,0.00,,,0.12,,2013-03-17 03:33:00,
2013-03-16 23:43:00,58.0,50.0,29.82,WNW,298,0.0,3.0,76,0.00,,,0.12,,2013-03-17 03:43:00,
2013-03-16 23:53:00,58.0,50.0,29.82,WNW,298,0.0,0.0,76,0.00,,,0.12,,2013-03-17 03:53:00,